Bodrum Milas, Turkey

7:35 AM +03 on January 24, 2017 (GMT +0300)
Bodrum

Weather History for LTFE - November, 2013

Change the Weather History Date:

Thursday, November 21, 2013

  Actual Average Record
Temperature  
Mean Temperature 64 °F -  
Max Temperature 73 °F - - ()
Min Temperature 55 °F - - ()
Degree Days  
Heating Degree Days 1    
Growing Degree Days 14 (Base 50)    
Moisture  
Dew Point 57 °F    
Average Humidity 79    
Maximum Humidity 94    
Minimum Humidity 57    
Precipitation  
Precipitation 0.00 in - - ()
Sea Level Pressure  
Sea Level Pressure 29.93 in    
Wind  
Wind Speed 4 mph ()    
Max Wind Speed 15 mph    
Max Gust Speed -    
Visibility 6.2 miles    
Events Rain , Thunderstorm    
T = Trace of Precipitation, MM = Missing Value Source: Averaged Metar Reports

Daily Weather History Graph

Daily Weather History Graph

Search for Another Location

Airport or City:

Trip Planner

Search our weather history database for the weather conditions in past years. The results will help you decide how hot, cold, wet, or windy it might be!

Date:

Astronomy

Nov. 21, 2013 Rise Set
Actual Time 6:54 AM EET 4:55 PM EET
Civil Twilight 6:26 AM EET 5:23 PM EET
Nautical Twilight 5:54 AM EET 5:55 PM EET
Astronomical Twilight 5:23 AM EET 6:26 PM EET
Moon 8:14 PM EET (11/21) 9:48 AM EET (11/21)
Length of Visible Light 10h 57m
Length of Day
10h 01m
Waning Gibbous, 87% of the Moon is Illuminated
Nov 21
Waning Gibbous
Nov 25
Last Quarter
Dec 3
New
Dec 9
First Quarter
Dec 17
Full

Hourly Weather History & Observations

Time (EET) Temp. Dew Point Humidity Pressure Visibility Wind Dir Wind Speed Gust Speed Precip Events Conditions
12:20 AM 60.8 °F 55.4 °F 82% 30.01 in 6.2 mi Variable 2.3 mph - N/A   Mostly Cloudy
12:50 AM 59.0 °F 55.4 °F 88% 30.01 in 6.2 mi Calm Calm - N/A   Mostly Cloudy
1:20 AM 59.0 °F 55.4 °F 88% 30.01 in 6.2 mi NW 3.5 mph - N/A   Mostly Cloudy
1:50 AM 57.2 °F 55.4 °F 94% 30.01 in 6.2 mi Calm Calm - N/A   Mostly Cloudy
2:20 AM 57.2 °F 55.4 °F 94% 30.01 in 6.2 mi East 5.8 mph - N/A   Scattered Clouds
2:50 AM 59.0 °F 55.4 °F 88% 29.98 in 6.2 mi Calm Calm - N/A   Scattered Clouds
3:20 AM 57.2 °F 55.4 °F 94% 29.98 in 6.2 mi East 5.8 mph - N/A   Scattered Clouds
3:50 AM 57.2 °F 55.4 °F 94% 29.98 in 6.2 mi Calm Calm - N/A   Scattered Clouds
4:20 AM 57.2 °F 53.6 °F 88% 29.98 in 6.2 mi Variable 1.2 mph - N/A   Scattered Clouds
4:50 AM 55.4 °F 53.6 °F 94% 29.98 in 6.2 mi West 3.5 mph - N/A   Scattered Clouds
5:20 AM 57.2 °F 55.4 °F 94% 29.98 in 6.2 mi SSW 2.3 mph - N/A   Scattered Clouds
5:50 AM 55.4 °F 53.6 °F 94% 29.98 in 6.2 mi North 3.5 mph - N/A   Scattered Clouds
6:20 AM 55.4 °F 53.6 °F 94% 29.98 in 6.2 mi SE 4.6 mph - N/A   Scattered Clouds
6:50 AM 55.4 °F 53.6 °F 94% 29.98 in 6.2 mi West 3.5 mph - N/A   Mostly Cloudy
7:20 AM 55.4 °F 53.6 °F 94% 29.98 in 6.2 mi Calm Calm - N/A   Mostly Cloudy
7:50 AM 60.8 °F 57.2 °F 88% 29.98 in 6.2 mi Calm Calm - N/A   Mostly Cloudy
8:20 AM 66.2 °F 59.0 °F 78% 29.98 in 6.2 mi SE 4.6 mph - N/A   Mostly Cloudy
8:50 AM 68.0 °F 59.0 °F 73% 29.98 in 6.2 mi ESE 10.4 mph - N/A   Mostly Cloudy
9:20 AM 69.8 °F 59.0 °F 68% 29.98 in 6.2 mi ESE 9.2 mph - N/A   Mostly Cloudy
9:50 AM 71.6 °F 59.0 °F 64% 29.98 in 6.2 mi SE 6.9 mph - N/A   Mostly Cloudy
10:20 AM 71.6 °F 59.0 °F 64% 29.98 in 6.2 mi SE 10.4 mph - N/A   Mostly Cloudy
10:50 AM 71.6 °F 57.2 °F 60% 29.95 in 6.2 mi SE 12.7 mph - N/A   Mostly Cloudy
11:20 AM 71.6 °F 57.2 °F 60% 29.95 in 6.2 mi SE 12.7 mph - N/A   Mostly Cloudy
11:50 AM 71.6 °F 57.2 °F 60% 29.95 in 6.2 mi SE 13.8 mph - N/A   Mostly Cloudy
12:20 PM 71.6 °F 57.2 °F 60% 29.92 in 6.2 mi SE 12.7 mph - N/A   Mostly Cloudy
12:50 PM 71.6 °F 57.2 °F 60% 29.92 in 6.2 mi SE 12.7 mph - N/A   Mostly Cloudy
1:20 PM 73.4 °F 57.2 °F 57% 29.89 in 6.2 mi SE 12.7 mph - N/A   Mostly Cloudy
1:50 PM 71.6 °F 57.2 °F 60% 29.89 in 6.2 mi SE 15.0 mph - N/A   Mostly Cloudy
2:20 PM 71.6 °F 57.2 °F 60% 29.89 in 6.2 mi SE 10.4 mph - N/A   Mostly Cloudy
2:50 PM 71.6 °F 59.0 °F 64% 29.89 in 6.2 mi SE 10.4 mph - N/A   Mostly Cloudy
3:20 PM 71.6 °F 57.2 °F 60% 29.89 in 6.2 mi SE 10.4 mph - N/A   Mostly Cloudy
3:50 PM 69.8 °F 59.0 °F 68% 29.86 in 6.2 mi SE 9.2 mph - N/A   Mostly Cloudy
4:20 PM 68.0 °F 59.0 °F 73% 29.89 in 6.2 mi SE 6.9 mph - N/A   Mostly Cloudy
4:50 PM 68.0 °F 57.2 °F 68% 29.89 in 6.2 mi SE 6.9 mph - N/A   Mostly Cloudy
5:20 PM 66.2 °F 57.2 °F 73% 29.89 in 6.2 mi SE 4.6 mph - N/A   Mostly Cloudy
5:32 PM 64.4 °F 57.2 °F 77% 29.89 in 6.2 mi SE 4.6 mph - N/A Thunderstorm Mostly Cloudy
5:50 PM 64.4 °F 57.2 °F 77% 29.89 in 6.2 mi Calm Calm - N/A Thunderstorm Mostly Cloudy
6:20 PM 64.4 °F 57.2 °F 77% 29.89 in 6.2 mi East 5.8 mph - N/A Thunderstorm Mostly Cloudy
6:50 PM 62.6 °F 57.2 °F 82% 29.89 in 6.2 mi Variable 2.3 mph - N/A   Mostly Cloudy
7:20 PM 60.8 °F 57.2 °F 88% 29.89 in 6.2 mi West 5.8 mph - N/A   Mostly Cloudy
7:50 PM 60.8 °F 57.2 °F 88% 29.92 in 6.2 mi Variable 2.3 mph - N/A   Mostly Cloudy
8:20 PM 60.8 °F 57.2 °F 88% 29.92 in 6.2 mi Calm Calm - N/A   Mostly Cloudy
8:50 PM 62.6 °F 59.0 °F 88% 29.89 in 6.2 mi Variable 1.2 mph - N/A   Mostly Cloudy
9:20 PM 60.8 °F 57.2 °F 88% 29.89 in 6.2 mi Calm Calm - N/A   Mostly Cloudy
9:50 PM 62.6 °F 59.0 °F 88% 29.89 in 6.2 mi Variable 2.3 mph - N/A   Mostly Cloudy
10:20 PM 62.6 °F 59.0 °F 88% 29.89 in 6.2 mi ESE 8.1 mph - N/A Rain Light Rain Showers
10:50 PM 62.6 °F 57.2 °F 82% 29.86 in 6.2 mi ESE 13.8 mph - N/A Rain Light Rain Showers
11:20 PM 62.6 °F 57.2 °F 82% 29.86 in 6.2 mi ESE 6.9 mph - N/A Rain Light Rain Showers
11:50 PM 62.6 °F 57.2 °F 82% 29.83 in 6.2 mi Variable 2.3 mph - N/A Rain Light Rain Showers